Weather History for Skagway, AK

Change the Weather History Date:

Sunday, June 8, 2014

  Actual Average Record
Temperature  
Mean Temperature 52 °F -  
Max Temperature 57 °F 59 °F 78 °F (1969)
Min Temperature 48 °F 45 °F 35 °F (1984)
Degree Days  
Heating Degree Days 12    
Growing Degree Days 2 (Base 50)    
Moisture  
Dew Point 45 °F    
Average Humidity 80    
Maximum Humidity 94    
Minimum Humidity 57    
Precipitation  
Precipitation 0.21 in - - ()
Sea Level Pressure  
Sea Level Pressure 29.82 in    
Wind  
Wind Speed 6 mph (SSW)    
Max Wind Speed 22 mph    
Max Gust Speed 28 mph    
Visibility 7 miles    
Events Rain    
Averages and records for this station are not official NWS values.
T = Trace of Precipitation, MM = Missing Value Source: NWS Daily Summary

Daily Weather History Graph

Daily Weather History Graph

Search for Another Location

Airport:

Trip Planner

Search our weather history database for the weather conditions in past years. The results will help you decide how hot, cold, wet, or windy it might be!

Date:

Astronomy

Jun. 08, 2014 Rise Set
Actual Time 3:47 AM AKDT 10:14 PM AKDT
Civil Twilight 2:21 AM AKDT 11:40 PM AKDT
Nautical Twilight Sun does not rise Sun does not rise
Astronomical Twilight Sun does not rise Sun does not rise
Moon 4:31 PM AKDT (6/8) 2:02 AM AKDT (6/8)
Length of Visible Light 21h 19m
Length of Day
18h 26m
Waxing Gibbous, 78% of the Moon is Illuminated
Jun 8
Waxing Gibbous
Jun 12
Full
Jun 19
Last Quarter
Jun 27
New
Jul 5
First Quarter

Hourly Weather History & Observations

Time (AKDT) Temp. Dew Point Humidity Pressure Visibility Wind Dir Wind Speed Gust Speed Precip Events Conditions
12:53 AM 50.0 °F 48.0 °F 93% 29.82 in 6.0 mi Calm Calm - 0.03 in Rain Light Rain
1:26 AM 50.0 °F 48.0 °F 93% 29.81 in 1.8 mi Calm Calm - 0.02 in Rain Light Rain
1:32 AM 50.0 °F 48.0 °F 93% 29.81 in 1.2 mi Calm Calm - 0.03 in Rain Light Rain
1:37 AM 50.0 °F 48.0 °F 93% 29.79 in 2.0 mi Calm Calm - 0.03 in Rain Light Rain
1:48 AM 50.0 °F 48.2 °F 94% 29.81 in 6.0 mi Calm Calm - 0.04 in Rain Light Rain
1:53 AM 50.0 °F 48.0 °F 93% 29.81 in 6.0 mi West 3.5 mph - 0.04 in Rain Light Rain
2:12 AM 50.0 °F 48.0 °F 93% 29.80 in 6.0 mi Calm Calm - 0.02 in Rain Light Rain
2:47 AM 48.2 °F 46.4 °F 93% 29.81 in 1.8 mi Variable 4.6 mph - 0.05 in Rain Light Rain
2:49 AM 48.2 °F 46.4 °F 93% 29.81 in 1.2 mi Calm Calm - 0.05 in Rain Light Rain
2:53 AM 48.9 °F 46.9 °F 93% 29.81 in 1.0 mi WSW 3.5 mph - 0.05 in Rain Light Rain
2:58 AM 48.9 °F 46.9 °F 93% 29.79 in 2.0 mi Variable 5.8 mph - 0.01 in Rain Light Rain
3:04 AM 50.0 °F 46.9 °F 89% 29.79 in 6.0 mi SSW 12.7 mph 17.3 mph 0.01 in Rain Light Rain
3:53 AM 50.0 °F 44.1 °F 80% 29.80 in 8.0 mi SSW 21.9 mph 27.6 mph 0.03 in Rain Light Rain
4:53 AM 50.0 °F 43.0 °F 77% 29.80 in 8.0 mi SSW 16.1 mph 21.9 mph 0.02 in Rain Light Rain
5:53 AM 50.0 °F 44.1 °F 80% 29.80 in 10.0 mi South 8.1 mph - 0.01 in Rain Light Rain
6:53 AM 48.9 °F 44.1 °F 83% 29.81 in 10.0 mi WSW 4.6 mph - 0.01 in Rain Light Rain
7:53 AM 50.0 °F 45.0 °F 83% 29.81 in 8.0 mi Calm Calm - 0.01 in Rain Light Rain
8:53 AM 50.0 °F 45.0 °F 83% 29.80 in 10.0 mi SW 3.5 mph - 0.00 in   Overcast
9:53 AM 51.1 °F 46.0 °F 83% 29.81 in 10.0 mi NNE 4.6 mph - 0.00 in Rain Light Rain
10:53 AM 52.0 °F 45.0 °F 77% 29.81 in 10.0 mi Calm Calm - 0.00 in   Overcast
12:53 PM 55.9 °F 44.1 °F 64% 29.81 in 10.0 mi SSW 18.4 mph - N/A   Mostly Cloudy
1:53 PM 55.9 °F 46.0 °F 69% 29.82 in 10.0 mi SSW 17.3 mph 23.0 mph 0.01 in   Mostly Cloudy
2:53 PM 57.0 °F 42.1 °F 57% 29.81 in 10.0 mi SSW 21.9 mph - N/A   Partly Cloudy
3:53 PM 55.9 °F 44.1 °F 64% 29.82 in 10.0 mi SSW 17.3 mph - N/A   Mostly Cloudy
4:53 PM 55.9 °F 44.1 °F 64% 29.83 in 10.0 mi SSW 19.6 mph 27.6 mph N/A   Mostly Cloudy
5:53 PM 55.9 °F 44.1 °F 64% 29.83 in 10.0 mi SSW 21.9 mph 27.6 mph N/A   Scattered Clouds
6:53 PM 55.0 °F 43.0 °F 64% 29.85 in 10.0 mi SSW 19.6 mph 25.3 mph N/A   Overcast
7:53 PM 54.0 °F 43.0 °F 66% 29.86 in 10.0 mi SSW 20.7 mph - N/A   Overcast
8:53 PM 53.1 °F 43.0 °F 69% 29.88 in 10.0 mi SSW 17.3 mph 26.5 mph N/A   Overcast
9:53 PM 53.1 °F 43.0 °F 69% 29.88 in 10.0 mi SSW 16.1 mph - N/A   Overcast
10:53 PM 52.0 °F 44.1 °F 74% 29.90 in 10.0 mi South 8.1 mph 20.7 mph 0.00 in Rain Light Rain
11:53 PM 51.1 °F 44.1 °F 77% 29.92 in 10.0 mi Calm Calm - 0.00 in   Overcast